Weather in Krasnyy Oktyabr

Russia / Oryol Oblast     52°54′34″N   37°43′54″E
В апреле 2022 года жителям России запретили посещать сайт meteo.paraplan.net по решению Генеральной прокуратуры. Аудитория сайта уменьшилась в 10 раз. Владельцы сайта не видят смысла в поддержке погодного сервера в таких условиях. Сайт будет закрыт в октябре.
temp.,
°C
wind,
m/s
gust,
m/s
humid.,
%
clouds,
%
prec.,
mm/h
press.,
hPa
HPBL,
m
29 september, thu
thu2900:00+10ne119096 0.0 100552
03:00+9s1190100 0.0 100617
06:00+9s349495 0.0 100683
09:00+12ssw478622 0.0 1008346
12:00+14wsw467967 0.1 1010557
15:00+16wsw456077 0.1 10111124
18:00+13wsw2272100 0.0 101224
21:00+11ssw117567 0.0 101410
30 september, fri
fri3000:00+11sse337899 0.0 101529
03:00+10sse3583100 0.0 101586
06:00+10sse3791100 0.0 1016118
09:00+13sse41082100 0.0 1016326
12:00+16s5974100 0.0 1016549
15:00+13s3896100 2.6 1016260
18:00+13se2493100 1.1 101775
21:00+14sse2293100 1.6 101636
1 october, sat
sat100:00+13ssw389389 0.2 1016159
03:00+12ssw3796100 0.2 1017149
06:00+12sw3698100 0.0 1017155
09:00+14sw249397 0.0 1017185
12:00+18sw45728 0.0 1016682
15:00+19ssw576731 0.0 1015875
18:00+16ssw4984100 0.3 1014194
21:00+16ssw41187100 1.8 1013307
2 october, sun
sun200:00+15sw51091100 0.7 1012398
03:00+14sw5129399 1.0 1011523
06:00+13wsw499697 0.0 1011294
09:00+14wsw359399 0.0 1011390
12:00+16w357497 0.0 1011778
15:00+17wnw2368100 0.0 1011758
18:00+14ne3381100 0.0 101054
21:00+12ne4888100 0.1 1010218
3 october, mon
mon300:00+12e61288100 0.0 1008332
03:00+12e61295100 0.8 1006330
06:00+14se51096100 0.7 1002390
09:00+14ese61494100 3.1 999488
12:00+13se91793100 3.1 999727
15:00+14ese101890100 8.3 9961035
18:00+15sse11188697 0.6 9941232
21:00+10sse121982100 0.8 9971445